Theta_e
349 350 353 354 345 346 355 354 350 354 354 350 351 353 353 351 352 352 344 346 348 348 346 348 351 351 351 348 348 347 347 348 345 344 340 338 337 336 338 341 342 341 340 343 343 342 344 345 346
347 351 353 351 343 352 351 350 352 353 352 351 352 353 354 354 349 348 347 346 348 349 349 348 350 351 351 351 350 348 348 349 340 338 338 337 338 340 342 343 343 342 344 344 344 345 345 345 343
349 350 352 348 337 348 353 350 354 354 352 353 354 352 353 353 349 348 346 347 348 349 350 351 351 350 351 352 350 348 343 340 338 339 339 341 343 345 343 344 342 342 344 343 344 344 344 344 346
347 345 340 332 338 344 349 348 352 354 354 353 353 358 352 350 349 348 346 347 348 349 351 351 352 352 352 352 351 352 344 342 340 342 345 346 347 347 347 346 345 345 343 343 344 344 346 346 345
345 337 333 336 340 352 349 346 348 353 357 356 354 357 355 351 349 344 348 348 349 349 350 351 351 351 352 351 350 349 347 340 340 342 346 347 348 348 346 345 345 343 344 345 346 346 347 346 346
337 334 338 343 343 352 349 345 349 358 356 355 355 355 356 350 348 348 348 348 349 350 350 351 352 352 352 352 347 340 341 341 337 341 343 345 345 344 343 342 345 345 347 351 349 350 349 348 347
344 339 343 342 351 354 351 349 357 358 356 355 352 356 354 350 350 349 348 347 349 350 351 352 352 353 350 345 343 342 343 344 342 341 345 345 343 343 343 343 345 347 349 352 353 349 344 345 344
337 335 344 341 353 354 349 354 354 352 356 350 349 356 356 352 352 350 347 348 350 350 349 351 352 352 348 346 348 345 344 343 343 343 344 343 343 341 345 345 344 345 348 354 351 342 344 344 342
337 337 342 342 345 345 348 357 353 352 354 352 351 350 350 353 353 352 350 350 349 349 349 351 351 351 349 346 351 350 349 348 347 346 344 343 342 343 346 346 346 345 345 347 347 345 345 345 346
338 339 340 338 337 347 348 355 354 355 353 354 353 352 353 354 353 352 351 351 351 351 349 348 351 351 351 347 349 351 348 345 343 344 342 342 342 343 345 347 347 346 342 346 346 346 345 346 347
340 341 340 340 337 346 348 351 348 352 354 353 354 354 353 353 353 352 351 350 351 348 349 350 348 349 348 345 345 347 344 343 342 341 342 342 345 348 349 348 347 346 348 348 347 347 347 346 346
337 339 340 340 342 341 346 346 353 350 350 349 349 352 353 353 353 352 351 352 352 353 351 352 351 350 350 350 347 345 343 342 343 342 342 343 347 349 349 346 347 349 349 349 347 348 347 347 346
329 328 338 340 338 339 343 347 352 348 348 349 349 352 353 352 353 352 352 352 351 352 350 349 350 351 351 349 350 348 346 346 345 343 342 342 348 348 348 347 348 347 347 348 348 348 348 347 344
326 336 340 341 341 340 345 348 349 350 351 353 351 352 352 352 352 353 353 353 351 349 347 346 347 348 350 349 349 348 347 345 346 346 347 347 349 348 349 349 349 349 348 346 346 346 346 344 344
338 343 342 342 339 344 344 349 350 350 351 355 355 354 353 352 353 353 353 353 352 350 350 349 350 351 351 351 352 350 349 349 350 350 351 350 351 350 349 348 347 347 347 346 345 345 345 345 342
339 340 345 344 341 343 343 349 352 349 351 355 356 355 354 353 353 353 353 353 353 353 353 351 351 352 353 351 353 353 352 352 351 352 351 350 350 350 350 348 347 347 346 345 345 345 343 341 340
334 345 344 348 342 344 347 350 351 348 349 354 356 355 354 353 351 352 352 352 352 353 353 353 352 352 353 351 352 352 353 351 352 352 351 350 350 349 349 347 347 346 345 345 344 343 342 339 339
339 343 342 349 344 347 348 349 352 348 348 351 352 352 352 352 350 349 349 351 352 352 352 352 352 353 353 351 352 354 353 352 352 353 352 350 350 348 347 348 348 345 344 342 341 340 340 340 341
333 342 344 344 342 345 348 349 353 350 348 349 348 348 349 348 346 347 347 349 350 351 351 352 352 353 354 352 354 353 353 353 353 353 352 351 350 349 349 348 345 343 343 341 340 340 341 340 340
334 338 341 339 342 345 350 352 351 351 350 348 348 347 347 346 343 344 346 348 348 350 351 351 353 353 353 353 352 352 353 354 354 353 351 350 350 350 347 344 343 343 342 340 339 340 339 339 340
326 329 335 341 344 347 350 353 349 350 348 347 346 346 345 346 344 343 345 348 348 347 349 350 352 351 352 351 352 354 353 352 351 350 351 350 349 347 346 341 335 338 338 339 337 338 339 339 339
327 325 328 339 345 346 344 345 350 348 349 347 346 345 345 345 344 343 344 346 347 348 348 347 349 350 351 351 353 354 353 352 349 349 348 350 348 345 340 332 333 335 338 338 336 338 338 338 337
327 326 329 336 339 343 350 342 341 349 350 348 346 345 344 344 344 344 344 345 346 347 348 347 347 348 349 350 351 354 353 351 349 345 346 350 347 340 333 335 335 337 339 336 336 335 336 336 336
324 321 322 324 332 340 342 344 339 350 352 349 347 347 346 345 345 344 343 344 345 346 347 346 346 347 348 348 351 353 353 351 348 342 345 349 343 333 335 336 338 340 338 333 335 336 335 336 336
320 321 323 328 337 339 333 344 341 339 346 346 346 346 346 346 346 345 344 345 345 346 346 346 346 347 348 349 352 353 354 352 349 341 345 346 334 335 334 335 338 337 331 333 335 335 334 334 334
321 321 323 326 329 337 334 347 344 339 337 342 342 344 343 346 347 346 345 345 346 347 347 347 348 348 348 350 352 353 354 351 350 337 343 340 334 335 334 337 336 331 329 331 334 335 335 335 333
320 321 319 319 321 324 326 326 329 330 331 337 340 341 342 345 347 348 346 345 346 346 347 348 349 349 349 350 352 352 353 351 344 333 340 337 335 335 336 335 333 333 332 332 334 332 333 334 335
319 318 322 317 324 328 325 327 329 331 334 331 336 340 341 342 346 348 348 347 347 347 347 348 350 350 350 350 352 352 352 351 333 328 330 331 333 334 334 333 334 334 333 332 333 331 331 333 334
320 319 317 317 318 322 323 325 323 327 329 332 334 338 338 340 343 346 348 348 348 347 348 349 350 351 351 351 351 351 352 342 330 331 329 333 335 335 332 334 334 333 333 333 333 332 333 334 333
319 318 318 322 320 319 320 323 324 326 327 333 333 336 334 337 341 343 347 348 348 348 348 349 350 351 352 351 350 350 351 339 332 334 332 335 337 337 334 334 334 334 335 334 333 332 333 332 332
Wind_Speed
12 9 4 2 4 5 2 2 3 3 2 2 3 6 9 7 2 5 10 14 16 18 19 20 18 17 18 19 21 21 20 19 21 21 22 18 15 14 12 10 10 8 7 7 7 8 7 5 5
12 7 2 2 4 3 4 4 6 3 5 9 8 7 5 5 4 9 11 16 18 21 20 21 19 18 19 20 22 23 21 22 23 22 19 16 14 13 11 9 8 7 6 5 6 6 5 4 4
9 1 2 3 3 2 1 3 10 11 10 3 5 4 4 3 6 10 14 19 20 20 21 21 20 21 20 20 21 22 23 24 20 18 17 15 14 11 9 7 7 6 4 4 3 3 4 4 5
2 4 3 4 3 1 1 7 12 9 5 6 9 7 5 7 5 10 24 20 20 21 20 20 20 20 19 18 20 20 23 20 15 16 14 12 10 8 6 5 4 3 3 2 2 3 4 5 6
4 2 3 4 3 3 3 7 7 5 5 6 3 5 7 3 11 24 22 21 22 21 19 20 19 19 18 19 19 20 19 17 15 13 11 10 9 7 5 4 2 1 2 2 3 5 6 6 5
3 2 5 2 1 3 3 5 4 4 8 8 8 6 3 14 22 23 22 21 22 21 20 19 18 18 19 18 18 18 16 15 14 13 11 9 8 7 5 3 1 1 2 3 5 7 7 6 5
4 3 3 3 2 2 2 4 4 4 7 6 10 5 6 10 21 23 22 22 21 20 19 18 17 17 18 19 18 17 15 14 13 11 10 9 7 5 4 3 2 2 3 5 6 7 7 6 4
3 4 2 2 5 4 5 3 6 5 3 8 9 7 8 12 23 23 22 21 20 19 18 18 19 18 18 18 15 14 13 13 13 12 11 9 7 5 4 4 5 5 6 7 7 7 5 5 4
3 4 3 7 8 5 6 3 3 5 10 3 5 5 12 25 24 22 21 19 19 18 17 18 18 18 17 17 14 13 12 12 12 10 10 9 7 7 6 6 8 8 7 6 6 4 5 6 4
4 3 8 7 7 8 10 6 7 4 10 2 7 15 26 25 23 20 19 17 17 21 20 18 19 19 18 16 14 15 15 14 12 12 12 10 9 8 8 8 6 8 5 5 4 3 5 5 5
3 5 5 5 7 15 12 7 5 10 5 5 13 19 22 23 20 18 19 21 24 25 23 22 21 19 19 18 18 16 15 14 12 12 12 10 10 9 8 7 5 2 4 4 4 3 4 4 5
1 6 7 7 8 8 13 9 5 9 5 7 14 20 20 18 17 19 19 19 22 25 26 24 23 22 22 20 19 18 17 16 15 15 14 14 11 10 8 6 5 6 6 4 4 6 7 5 8
4 3 9 8 9 9 13 7 5 6 6 15 17 18 18 15 19 20 22 23 26 25 26 25 24 23 22 21 19 18 18 16 15 15 16 16 14 11 9 6 7 7 8 7 8 8 7 9 10
3 3 8 7 9 5 9 5 8 4 14 15 18 17 16 16 20 18 18 17 24 26 27 25 25 24 23 23 21 19 18 17 16 15 16 16 16 13 12 8 10 10 10 9 9 10 10 10 10
6 7 9 4 4 4 12 1 6 11 16 16 16 15 14 14 18 20 23 25 30 31 28 27 25 25 24 23 20 17 17 17 17 17 17 16 16 15 13 11 10 9 8 9 10 9 8 8 7
4 5 5 4 6 7 6 7 2 15 17 16 15 14 14 14 19 22 22 27 30 30 31 28 26 25 23 23 21 20 18 16 17 16 17 14 13 13 12 12 11 9 8 9 7 6 6 7 8
3 7 4 3 6 7 3 4 8 13 15 15 16 15 14 13 15 22 26 30 30 32 31 31 28 27 24 22 20 20 18 15 13 12 13 12 12 12 13 13 11 7 8 6 4 4 6 9 10
6 6 3 6 9 8 5 4 12 14 14 16 16 15 16 15 17 24 26 30 33 33 31 31 30 28 25 24 21 19 18 17 16 15 14 14 12 10 9 8 7 6 4 3 4 6 7 9 9
7 7 12 3 2 2 5 5 15 15 14 15 15 15 16 15 21 25 26 29 32 33 32 31 31 30 27 26 23 19 19 16 15 14 12 12 11 9 8 6 6 5 5 5 5 5 5 5 5
8 7 7 1 4 4 1 3 9 16 18 17 16 15 14 16 8 16 22 24 30 35 35 32 32 30 29 28 25 21 17 15 14 11 11 10 10 10 8 7 6 6 5 5 4 5 4 3 3
5 9 7 14 7 3 6 3 8 11 8 11 13 12 13 15 12 11 18 25 29 31 36 35 34 33 31 27 24 19 13 10 9 12 11 10 10 10 9 7 6 5 5 5 5 5 4 4 3
7 8 8 9 12 7 6 5 8 12 17 14 17 15 16 15 12 13 19 23 26 36 37 36 34 34 33 28 27 24 20 15 14 14 13 14 14 11 9 7 5 6 6 6 7 4 4 4 3
9 8 10 7 7 5 3 3 7 13 10 22 20 20 19 18 18 16 19 27 33 35 38 37 35 34 33 30 27 26 22 18 14 13 14 17 16 13 13 11 10 10 8 8 5 4 4 5 3
8 7 7 5 4 1 9 9 5 7 24 24 16 20 19 17 17 17 25 27 27 29 35 38 37 34 33 30 28 28 24 20 16 15 16 20 18 16 16 16 13 11 9 8 6 5 5 5 5
6 7 1 2 1 6 4 3 12 11 16 23 23 22 21 18 17 16 17 22 26 29 37 39 40 39 36 34 31 30 27 23 19 19 22 21 18 18 17 16 16 13 9 7 5 4 5 5 6
7 9 6 7 5 5 4 8 9 21 16 13 9 16 12 17 18 19 20 26 28 31 34 36 37 40 39 37 35 32 28 26 22 20 23 23 20 18 15 16 14 9 8 7 7 7 8 10 9
4 4 6 7 2 3 4 7 9 7 8 9 13 11 17 19 20 21 19 29 31 32 37 41 38 39 40 41 38 35 31 27 25 22 23 22 19 17 16 15 13 13 12 10 9 8 8 6 10
9 9 4 3 5 4 4 4 6 5 11 9 8 16 18 18 17 18 19 28 33 37 39 38 39 43 42 42 42 39 35 31 27 23 24 23 21 19 18 17 15 15 13 12 11 10 9 9 10
3 3 5 5 5 7 4 6 8 10 11 11 14 18 18 18 18 19 19 30 36 37 32 34 36 38 40 44 45 42 39 35 29 26 25 24 21 20 20 18 17 16 15 13 12 11 10 11 12
10 11 9 6 5 2 4 7 5 12 6 9 13 15 12 13 17 18 18 25 28 30 32 34 37 35 41 41 43 45 41 38 33 30 27 25 24 23 21 20 19 18 17 15 13 11 11 12 12
Wind_Direction
140 140 112 28 35 68 69 101 93 103 90 44 35 83 112 44 46 145 146 141 152 153 160 150 139 145 143 144 146 144 144 145 147 148 153 150 147 143 140 131 128 122 117 116 103 91 82 71 61
145 138 76 97 75 34 316 103 104 84 109 122 86 99 51 70 58 112 129 146 150 145 152 153 147 144 144 150 149 150 149 147 146 149 156 153 145 142 143 136 128 126 125 110 86 75 63 46 41
136 77 85 90 99 143 205 80 118 128 148 99 111 69 66 73 104 129 146 148 145 144 148 147 148 148 148 149 147 151 153 149 148 150 149 145 143 141 139 135 132 128 118 88 76 67 40 12 10
170 4 26 73 78 32 170 123 130 130 104 63 111 65 75 137 126 145 151 151 146 145 148 150 151 151 149 150 147 153 159 158 154 148 148 147 147 141 135 136 120 111 77 55 31 25 4 356 350
68 63 56 63 4 359 46 123 136 111 84 80 46 94 95 50 128 144 154 157 152 151 153 154 155 154 153 149 149 151 152 157 156 155 156 154 154 150 149 140 129 71 23 7 354 347 345 334 335
59 89 57 82 43 33 37 99 122 71 117 119 95 96 97 141 139 152 158 160 158 157 159 159 156 153 154 152 152 151 161 165 168 168 163 163 164 164 163 172 190 321 331 321 329 332 331 322 320
125 89 143 109 94 45 170 127 103 104 132 125 135 99 130 149 152 159 162 163 163 162 161 160 160 160 159 158 155 158 160 165 167 166 167 173 177 179 194 234 265 272 285 297 316 321 328 319 312
119 87 103 109 161 213 178 102 137 119 70 110 139 159 166 174 157 162 163 167 168 167 169 167 166 167 169 166 169 173 175 176 173 175 181 186 195 207 234 272 281 280 289 293 310 320 341 348 340
112 80 169 176 158 199 152 125 142 97 139 198 151 142 143 152 153 153 160 168 172 175 177 175 172 175 176 182 182 189 193 192 195 196 198 202 209 214 238 261 279 288 281 307 312 329 347 342 349
121 119 194 187 164 171 162 146 152 119 163 95 92 112 137 149 151 154 165 172 177 184 186 186 184 185 187 187 183 195 193 194 200 205 210 207 222 232 248 283 293 291 267 298 313 332 327 327 335
176 209 167 178 175 148 155 156 175 141 223 202 157 150 152 155 160 166 177 180 184 189 191 194 192 194 196 198 195 199 198 205 210 216 221 221 230 237 242 256 292 288 282 293 293 302 318 328 337
202 244 166 168 165 141 158 141 154 162 215 169 162 153 155 160 168 175 180 183 185 192 192 194 196 198 202 205 207 213 216 216 222 225 227 226 236 242 243 272 271 288 299 287 282 309 311 325 319
242 217 168 154 138 149 128 157 163 192 124 129 143 152 164 170 176 185 187 191 189 194 196 197 200 205 207 210 212 218 222 223 228 233 232 234 239 248 257 261 275 292 297 281 288 298 304 314 320
239 116 135 108 116 100 119 137 118 190 136 138 152 166 172 178 184 184 186 188 194 198 202 202 205 207 210 213 217 222 226 227 229 234 237 240 249 262 267 275 275 285 283 288 290 300 304 313 321
142 99 69 85 107 107 108 185 209 153 149 155 167 174 181 190 189 192 191 194 200 199 199 202 204 208 211 215 218 224 228 233 238 242 247 249 256 258 263 282 280 278 282 287 291 296 305 313 312
80 65 111 221 148 173 115 246 143 156 156 167 178 184 189 195 198 202 203 205 205 203 203 202 207 213 215 217 222 225 233 242 242 250 246 248 249 256 262 273 276 270 278 286 285 291 307 312 324
10 151 126 160 206 146 155 228 173 171 166 172 182 190 196 200 207 208 205 208 208 209 208 208 209 215 217 220 227 231 233 239 237 239 243 250 251 254 262 267 268 258 279 276 274 290 305 315 320
181 134 148 194 192 164 165 243 164 180 176 181 189 193 196 200 207 207 207 208 210 211 213 212 213 217 220 221 227 230 235 242 244 246 251 252 251 256 265 258 234 254 240 251 276 292 308 308 316
146 168 177 111 35 70 184 188 177 185 195 197 196 199 202 204 209 206 205 204 208 211 214 215 216 218 220 219 221 228 233 237 244 246 241 241 245 246 254 244 227 211 229 261 275 295 305 312 320
162 149 206 23 135 141 187 287 192 199 203 201 204 210 207 212 180 190 196 196 204 210 213 215 214 216 217 220 219 221 229 241 244 239 231 229 229 224 223 217 226 246 249 262 274 281 286 278 300
170 165 169 211 142 84 128 319 191 217 215 218 227 222 217 212 202 194 191 193 203 206 210 213 213 217 218 218 216 218 226 226 220 216 204 208 200 202 204 225 243 233 252 260 267 271 268 267 256
162 204 165 140 152 198 163 245 227 204 211 215 221 213 216 213 206 199 194 196 199 210 215 216 217 220 221 221 218 220 221 217 221 214 219 208 198 202 213 207 231 210 223 252 274 249 256 248 242
214 158 154 163 165 125 196 102 264 175 222 227 218 213 213 208 202 199 200 201 203 208 214 218 219 222 223 220 221 220 223 227 232 225 216 202 200 207 199 206 203 210 230 256 237 243 237 248 243
142 91 55 54 104 130 217 185 251 187 214 230 217 216 208 205 200 202 198 199 204 206 210 216 218 222 219 220 220 218 221 221 224 221 206 197 202 204 209 215 215 218 233 232 219 228 242 238 237
83 82 6 48 85 209 210 153 230 216 221 222 210 208 204 198 193 193 189 194 197 197 209 214 217 218 218 218 218 218 221 222 223 215 203 197 204 213 221 215 208 214 210 202 208 229 246 239 238
179 155 155 187 180 217 114 208 244 230 230 244 229 213 194 197 195 195 193 193 197 199 206 210 214 215 218 218 219 220 220 222 225 223 211 206 214 220 216 198 201 204 211 211 224 242 253 241 243
194 157 187 107 40 93 201 283 310 239 248 219 222 175 196 197 196 196 193 194 197 199 204 209 211 215 218 219 219 216 216 219 215 215 212 214 220 219 207 203 212 214 217 225 230 244 259 270 252
164 168 98 356 142 220 267 265 228 244 245 224 216 203 203 201 196 196 194 196 199 204 207 207 211 214 216 220 220 217 214 213 210 209 213 214 211 209 211 215 216 221 230 231 235 248 264 273 273
120 160 56 121 134 172 198 256 215 213 219 218 220 212 199 195 193 195 198 198 202 205 204 205 208 210 214 219 219 218 214 209 206 206 208 207 209 214 220 222 220 230 234 235 242 252 266 273 278
184 181 163 182 220 213 175 252 230 217 209 221 231 211 200 196 195 195 196 196 201 204 203 204 207 208 215 216 217 217 214 209 206 209 213 215 213 215 218 214 225 232 242 244 245 255 265 266 266